When you browse on this site, cookies collect data to enhance your experience and personalize the content and advertising you see.
Visit our Privacy Policy to learn more. By continuing to use the site, you agree to this use of cookies and data.
  • In Netherlands
  • List of Countries
  • For 7 days
  • Water Temperature
  • Satellite Maps
  • Weather Map
  • Weather Widgets
  • user-avatar
    Login

    Hourly Weather Krivye

    Today, 16 January, Wednesday

    Time Temperature Precipitation Wind Pressure Humidity
    00:00 -10°C° 0 mm 2 mps 726 mmHg 95%
    01:00 -10°C° 0 mm 2 mps 726 mmHg 95%
    02:00 -10°C° 0 mm 2 mps 726 mmHg 96%
    03:00 -10°C° 0 mm 2 mps 726 mmHg 95%
    04:00 -10°C° 0 mm 2 mps 726 mmHg 95%
    05:00 -12°C° 0 mm 2 mps 727 mmHg 95%
    06:00 -12°C° 0 mm 2 mps 727 mmHg 95%
    07:00 -12°C° 0 mm 2 mps 727 mmHg 94%
    08:00 -13°C° 0 mm 3 mps 728 mmHg 94%
    09:00 -12°C° 0 mm 3 mps 729 mmHg 94%
    10:00 -9°C° 0 mm 3 mps 729 mmHg 94%
    11:00 -9°C° 0 mm 4 mps 730 mmHg 94%
    12:00 -8°C° 0 mm 4 mps 730 mmHg 93%
    13:00 -8°C° 0 mm 4 mps 731 mmHg 92%
    14:00 -7°C° 0 mm 5 mps 731 mmHg 90%
    15:00 -8°C° 0 mm 4 mps 732 mmHg 90%
    16:00 -8°C° 0 mm 4 mps 733 mmHg 91%
    17:00 -8°C° 0 mm 4 mps 733 mmHg 91%
    18:00 -9°C° 0 mm 4 mps 733 mmHg 93%
    19:00 -10°C° 0 mm 3 mps 734 mmHg 95%
    20:00 -12°C° 0 mm 3 mps 734 mmHg 96%
    21:00 -13°C° 0 mm 3 mps 734 mmHg 96%
    22:00 -13°C° 0 mm 3 mps 734 mmHg 95%
    23:00 -14°C° 0 mm 3 mps 735 mmHg 94%

    Tomorrow, 17 January, Thursday

    Time Temperature Precipitation Wind Pressure Humidity
    00:00 -14°C° 0 mm 4 mps 734 mmHg 94%
    01:00 -12°C° 0 mm 4 mps 734 mmHg 93%
    02:00 -12°C° 0 mm 5 mps 734 mmHg 93%
    03:00 -11°C° 0.1 mm 6 mps 733 mmHg 92%
    04:00 -10°C° 0.1 mm 6 mps 733 mmHg 92%
    05:00 -8°C° 0.1 mm 7 mps 732 mmHg 92%
    06:00 -7°C° 0.1 mm 7 mps 732 mmHg 92%
    07:00 -6°C° 0.1 mm 8 mps 731 mmHg 92%
    08:00 -5°C° 0.1 mm 8 mps 731 mmHg 92%
    09:00 -4°C° 0.3 mm 8 mps 731 mmHg 93%
    10:00 -4°C° 0.3 mm 8 mps 730 mmHg 93%
    11:00 -2°C° 0.3 mm 8 mps 730 mmHg 93%
    12:00 -3°C° 0.4 mm 9 mps 729 mmHg 93%
    13:00 -3°C° 0.4 mm 9 mps 729 mmHg 93%
    14:00 -3°C° 0.4 mm 9 mps 728 mmHg 92%
    15:00 -3°C° 0.1 mm 9 mps 728 mmHg 91%
    16:00 -3°C° 0.1 mm 9 mps 728 mmHg 89%
    17:00 -2°C° 0.1 mm 8 mps 728 mmHg 88%
    18:00 -2°C° 0.1 mm 8 mps 728 mmHg 88%
    19:00 -2°C° 0.1 mm 8 mps 728 mmHg 89%
    20:00 -2°C° 0.1 mm 7 mps 728 mmHg 89%
    21:00 -2°C° 0 mm 7 mps 729 mmHg 88%
    22:00 -2°C° 0 mm 7 mps 729 mmHg 87%
    23:00 -2°C° 0 mm 7 mps 729 mmHg 85%

    Day after tomorrow, 18 January, Friday

    Time Temperature Precipitation Wind Pressure Humidity
    00:00 -2°C° 0 mm 7 mps 729 mmHg 86%
    01:00 -2°C° 0 mm 8 mps 729 mmHg 87%
    02:00 -2°C° 0 mm 8 mps 729 mmHg 88%
    03:00 -2°C° 0 mm 7 mps 729 mmHg 88%
    04:00 -2°C° 0 mm 7 mps 729 mmHg 89%
    05:00 -2°C° 0 mm 7 mps 729 mmHg 89%
    06:00 -2°C° 0.1 mm 7 mps 729 mmHg 90%
    07:00 -2°C° 0.1 mm 7 mps 729 mmHg 90%
    08:00 -2°C° 0.1 mm 7 mps 729 mmHg 90%
    09:00 -2°C° 0.1 mm 7 mps 729 mmHg 87%
    10:00 -2°C° 0.1 mm 8 mps 729 mmHg 85%
    11:00 -4°C° 0.1 mm 8 mps 729 mmHg 83%
    12:00 -3°C° 0 mm 7 mps 729 mmHg 84%
    13:00 -4°C° 0 mm 7 mps 730 mmHg 84%
    14:00 -4°C° 0 mm 6 mps 730 mmHg 85%
    15:00 -4°C° 0.2 mm 6 mps 730 mmHg 88%
    16:00 -5°C° 0.2 mm 5 mps 731 mmHg 91%
    17:00 -4°C° 0.2 mm 4 mps 731 mmHg 93%
    18:00 -7°C° 0.3 mm 5 mps 732 mmHg 91%
    19:00 -9°C° 0.3 mm 6 mps 733 mmHg 89%
    20:00 -10°C° 0.3 mm 6 mps 734 mmHg 86%
    21:00 -11°C° 0 mm 6 mps 735 mmHg 87%
    22:00 -12°C° 0 mm 5 mps 736 mmHg 89%
    23:00 -11°C° 0 mm 4 mps 737 mmHg 90%

    19 January, Saturday

    Time Temperature Precipitation Wind Pressure Humidity
    00:00 -12°C° 0 mm 5 mps 737 mmHg 90%
    01:00 -11°C° 0 mm 5 mps 738 mmHg 90%
    02:00 -11°C° 0 mm 6 mps 739 mmHg 91%
    03:00 -11°C° 0 mm 6 mps 739 mmHg 90%
    04:00 -10°C° 0 mm 6 mps 739 mmHg 90%
    05:00 -10°C° 0 mm 6 mps 739 mmHg 89%
    06:00 -11°C° 0 mm 6 mps 740 mmHg 89%
    07:00 -11°C° 0 mm 6 mps 740 mmHg 88%
    08:00 -11°C° 0 mm 5 mps 741 mmHg 87%
    09:00 -11°C° 0 mm 6 mps 741 mmHg 87%
    10:00 -10°C° 0 mm 6 mps 742 mmHg 86%
    11:00 -9°C° 0 mm 6 mps 742 mmHg 85%
    12:00 -9°C° 0 mm 6 mps 742 mmHg 85%
    13:00 -7°C° 0 mm 5 mps 742 mmHg 85%
    14:00 -7°C° 0 mm 5 mps 742 mmHg 85%
    15:00 -8°C° 0 mm 5 mps 742 mmHg 87%
    16:00 -8°C° 0 mm 5 mps 742 mmHg 90%
    17:00 -10°C° 0 mm 5 mps 742 mmHg 93%
    18:00 -9°C° 0 mm 4 mps 742 mmHg 93%
    19:00 -9°C° 0 mm 4 mps 742 mmHg 93%
    20:00 -9°C° 0 mm 4 mps 743 mmHg 93%
    21:00 -8°C° 0 mm 3 mps 743 mmHg 93%
    22:00 -9°C° 0 mm 3 mps 743 mmHg 94%
    23:00 -9°C° 0 mm 3 mps 743 mmHg 95%

    20 January, Sunday

    Time Temperature Precipitation Wind Pressure Humidity
    00:00 -9°C° 0 mm 4 mps 743 mmHg 95%
    01:00 -9°C° 0 mm 4 mps 743 mmHg 94%
    02:00 -8°C° 0 mm 5 mps 742 mmHg 94%
    03:00 -8°C° 0.3 mm 5 mps 742 mmHg 93%
    04:00 -8°C° 0.3 mm 6 mps 742 mmHg 92%
    05:00 -8°C° 0.3 mm 6 mps 742 mmHg 91%
    06:00 -7°C° 0 mm 5 mps 742 mmHg 91%
    07:00 -7°C° 0 mm 4 mps 742 mmHg 91%
    08:00 -7°C° 0 mm 4 mps 742 mmHg 91%
    09:00 -7°C° 0 mm 4 mps 742 mmHg 92%
    10:00 -8°C° 0 mm 4 mps 742 mmHg 92%
    11:00 -8°C° 0 mm 4 mps 742 mmHg 93%
    12:00 -7°C° 0 mm 3 mps 742 mmHg 94%
    13:00 -7°C° 0 mm 3 mps 742 mmHg 94%
    14:00 -7°C° 0 mm 3 mps 742 mmHg 94%
    15:00 -8°C° 0 mm 3 mps 742 mmHg 95%
    16:00 -9°C° 0 mm 3 mps 742 mmHg 96%
    17:00 -9°C° 0 mm 2 mps 742 mmHg 97%
    18:00 -9°C° 0 mm 2 mps 742 mmHg 97%
    19:00 -9°C° 0 mm 2 mps 742 mmHg 97%
    20:00 -9°C° 0 mm 2 mps 741 mmHg 97%
    21:00 -8°C° 0.2 mm 2 mps 741 mmHg 97%
    22:00 -9°C° 0.2 mm 3 mps 741 mmHg 96%
    23:00 -9°C° 0.2 mm 3 mps 741 mmHg 96%

    21 January, Monday

    Time Temperature Precipitation Wind Pressure Humidity
    00:00 -8°C° 0 mm 2 mps 741 mmHg 96%
    01:00 -8°C° 0 mm 2 mps 741 mmHg 96%
    02:00 -9°C° 0 mm 2 mps 742 mmHg 96%
    03:00 -8°C° 0 mm 2 mps 742 mmHg 96%
    04:00 -8°C° 0 mm 2 mps 742 mmHg 96%
    05:00 -8°C° 0 mm 2 mps 742 mmHg 96%
    06:00 -8°C° 0.1 mm 2 mps 743 mmHg 96%
    07:00 -9°C° 0.1 mm 3 mps 743 mmHg 96%
    08:00 -9°C° 0.1 mm 3 mps 744 mmHg 95%
    09:00 -11°C° 0.1 mm 4 mps 744 mmHg 94%
    10:00 -11°C° 0.1 mm 4 mps 745 mmHg 93%
    11:00 -13°C° 0.1 mm 5 mps 745 mmHg 92%
    12:00 -13°C° 0 mm 5 mps 746 mmHg 92%
    13:00 -14°C° 0 mm 5 mps 746 mmHg 91%
    14:00 -14°C° 0 mm 5 mps 746 mmHg 91%
    15:00 -15°C° 0 mm 4 mps 747 mmHg 91%
    16:00 -14°C° 0 mm 3 mps 747 mmHg 92%
    17:00 -14°C° 0 mm 2 mps 747 mmHg 92%
    18:00 -15°C° 0 mm 3 mps 748 mmHg 94%
    19:00 -16°C° 0 mm 3 mps 748 mmHg 95%
    20:00 -16°C° 0 mm 3 mps 748 mmHg 96%
    21:00 -17°C° 0 mm 3 mps 749 mmHg 97%
    22:00 -16°C° 0 mm 2 mps 749 mmHg 97%
    23:00 -17°C° 0 mm 2 mps 749 mmHg 98%
    Show more